Regional Weather Roundup
Issued by NWS

Home | Current Version | Previous Version | Graphics & Text | Print | Product List | Glossary On
Versions: 1 2 3 4 5 6 7 8 9 10 11 12 13 14 15 16 17 18 19 20 21 22 23 24 25 26 27 28 29 30 31 32 33 34 35 36 37 38 39 40 41 42 43 44 45 46 47 48 49 50
000
ASUS43 KTOP 311108
RWRKS

WEATHER ROUNDUP FOR KANSAS
NATIONAL WEATHER SERVICE GOODLAND KS
600 AM CDT MON AUG 31 2015

NOTE:  "FAIR" INDICATES FEW OR NO CLOUDS BELOW 12,000 FEET WITH NO
SIGNIFICANT WEATHER AND/OR OBSTRUCTIONS TO VISIBILITY.

KSZ001>006-013>018-027>032-041>047-311200-
NORTHWEST KANSAS

CITY           SKY/WX    TMP DP  RH WIND       PRES   REMARKS
GOODLAND       CLEAR     59  53  80 S14       29.92F
HAYS           CLEAR     63  54  72 S6        29.94S
HILL CITY      CLEAR     59  56  89 CALM      29.93F
RUSSELL        CLEAR     63  62  97 S8        29.92F
$$

KSZ061>065-074>080-084>089-311200-
SOUTHWEST KANSAS

CITY           SKY/WX    TMP DP  RH WIND       PRES   REMARKS
DODGE CITY     CLEAR     61  59  93 S7        29.95S
ELKHART          N/A     61  48  62 S12         N/A
GARDEN CITY    CLEAR     61  57  87 SE12      29.93F
GREAT BEND     CLEAR     64  59  82 S8        29.94S
LIBERAL        CLEAR     59  50  72 S9        29.95F
PRATT          DRZL/FOG  63  63 100 CALM      29.96S VSB 1/4
$$

KSZ066>073-081>083-090>101-311200-
SOUTHEAST KANSAS

CITY           SKY/WX    TMP DP  RH WIND       PRES   REMARKS
CHANUTE        CLEAR     69  68  96 SE6       29.97R FOG
COFFEYVILLE    CLEAR     67  66  97 SE3       29.96S FOG
HUTCHINSON     FOG       67  65  93 SE5       29.95S VSB 1/4
MEDICINE LODGE   N/A     68  68 100 SE7       29.93S
NEWTON           N/A     64  61  88 SE7       29.98S VSB 1/2
PARSONS        CLEAR     70  68  93 SE3       29.98R
WICHITA INTL   CLEAR     70  67  90 SE7       29.95R FOG
WICHITA JABRA  FOG       64  63  96 SE5       29.96R VSB 1/2
WICHITA MCCONL CLEAR     69  60  72 SE7       29.95S
WINFIELD       CLEAR     69  67  93 E7        29.96S
$$

KSZ007>012-019>026-033>040-048>060-102>105-311200-
NORTHEAST KANSAS

CITY           SKY/WX    TMP DP  RH WIND       PRES   REMARKS
CONCORDIA      CLEAR     62  61  96 SE5       29.94S FOG
EMPORIA        FOG       62  62 100 SE5       29.97R VSB 1/4
LAWRENCE       CLOUDY    64  63  96 CALM      29.96S FOG
MANHATTAN      PTCLDY    63  63 100 CALM      29.94S FOG
MARYSVILLE     CLEAR    N/A N/A N/A SE3       29.96R FOG
OLATHE IND     CLEAR     69  69 100 S5        29.98R FOG
OLATHE EXE     CLEAR     69  69 100 S5        29.97R FOG
SALINA         PTCLDY    62  60  93 SE3       29.94S
TOPEKA BILLARD FOG       66  65  96 CALM      29.96S VSB 1/4
TOPEKA FORBES  CLOUDY    65  62  90 SE3       29.96S FOG
$$


USA.gov is the U.S. government's official web portal to all federal, state and local government web resources and services.